Martinsburg, PA

10:39 AM EST on February 23, 2017 (GMT -0500)
Altoona-Blair County

Weather History for KAOO - February, 2013

Change the Weather History Date:

Friday, February 15, 2013

  Actual Average Record
Temperature  
Mean Temperature 38 °F 29 °F  
Max Temperature 43 °F 37 °F 68 °F (1954)
Min Temperature 30 °F 21 °F -5 °F (2015)
Degree Days  
Heating Degree Days 28 36  
Month to date heating degree days 553  
Since 1 July heating degree days 4106  
Cooling Degree Days 0 0  
Month to date cooling degree days 0  
Year to date cooling degree days 0  
Moisture  
Dew Point 27 °F    
Average Humidity 70    
Maximum Humidity 85    
Minimum Humidity 49    
Precipitation  
Precipitation 0.00 in 0.07 in 0.84 in (1989)
Month to date precipitation 1.07  
Year to date precipitation 3.24  
Sea Level Pressure  
Sea Level Pressure 29.97 in    
Wind  
Wind Speed 8 mph (WSW)    
Max Wind Speed 14 mph    
Max Gust Speed -    
Visibility 10 miles    
Events      
T = Trace of Precipitation, MM = Missing Value Source: NWS Daily Summary

Daily Weather History Graph

Daily Weather History Graph

Search for Another Location

Airport or City:

Trip Planner

Search our weather history database for the weather conditions in past years. The results will help you decide how hot, cold, wet, or windy it might be!

Date:

Astronomy

Feb. 15, 2013 Rise Set
Actual Time 7:06 AM EST 5:49 PM EST
Civil Twilight 6:38 AM EST 6:16 PM EST
Nautical Twilight 6:06 AM EST 6:48 PM EST
Astronomical Twilight 5:35 AM EST 7:20 PM EST
Moon 9:40 AM EST (2/15) 11:49 PM EST (2/15)
Length of Visible Light 11h 38m
Length of Day
10h 42m
Waxing Crescent, 30% of the Moon is Illuminated
Feb 15
Waxing Crescent
Feb 17
First Quarter
Feb 25
Full
Mar 4
Last Quarter
Mar 11
New

Hourly Weather History & Observations

Time (EST) Temp. Windchill Dew Point Humidity Pressure Visibility Wind Dir Wind Speed Gust Speed Precip Events Conditions
12:53 AM 37.0 °F 31.6 °F 28.0 °F 70% 29.93 in 10.0 mi South 6.9 mph - N/A   Partly Cloudy
1:53 AM 37.0 °F 31.0 °F 28.9 °F 73% 29.92 in 10.0 mi SSW 8.1 mph - N/A   Scattered Clouds
2:53 AM 36.0 °F 30.3 °F 30.0 °F 79% 29.93 in 10.0 mi SSW 6.9 mph - N/A   Mostly Cloudy
3:53 AM 37.0 °F 31.0 °F 30.9 °F 79% 29.94 in 10.0 mi SW 8.1 mph - N/A   Overcast
4:15 AM 37.4 °F 30.8 °F 30.2 °F 75% 29.91 in 10.0 mi SSW 9.2 mph - N/A   Overcast
4:44 AM 37.4 °F 31.4 °F 30.2 °F 75% 29.91 in 10.0 mi SSW 8.1 mph - N/A   Overcast
4:53 AM 39.0 °F 32.3 °F 30.9 °F 73% 29.95 in 10.0 mi SW 10.4 mph - N/A   Overcast
5:53 AM 37.0 °F 31.0 °F 30.0 °F 76% 29.96 in 10.0 mi SSW 8.1 mph - N/A   Overcast
6:50 AM 37.4 °F 30.8 °F 30.2 °F 75% 29.94 in 10.0 mi SW 9.2 mph - N/A   Overcast
6:53 AM 37.0 °F 29.8 °F 28.9 °F 73% 29.98 in 10.0 mi WSW 10.4 mph - N/A   Overcast
7:08 AM 37.4 °F 30.8 °F 28.4 °F 70% 29.94 in 10.0 mi SW 9.2 mph - N/A   Overcast
7:53 AM 36.0 °F 28.0 °F 26.1 °F 67% 30.00 in 10.0 mi WSW 11.5 mph - N/A   Mostly Cloudy
8:09 AM 35.6 °F 29.2 °F 26.6 °F 70% 29.98 in 10.0 mi WSW 8.1 mph - N/A   Overcast
8:53 AM 36.0 °F 27.1 °F 26.1 °F 67% 30.02 in 10.0 mi West 13.8 mph - N/A   Mostly Cloudy
9:11 AM 35.6 °F 26.6 °F 24.8 °F 65% 29.99 in 10.0 mi West 13.8 mph - N/A   Partly Cloudy
9:53 AM 37.9 °F 30.9 °F 25.0 °F 60% 30.02 in 10.0 mi West 10.4 mph - N/A   Clear
10:53 AM 39.9 °F 33.4 °F 25.0 °F 55% 30.01 in 10.0 mi WNW 10.4 mph - N/A   Mostly Cloudy
11:53 AM 43.0 °F 36.4 °F 25.0 °F 49% 29.99 in 10.0 mi West 12.7 mph - N/A   Clear
12:53 PM 42.1 °F 35.7 °F 24.1 °F 49% 29.97 in 10.0 mi West 11.5 mph - N/A   Overcast
1:53 PM 42.1 °F 37.1 °F 24.1 °F 49% 29.96 in 10.0 mi WNW 8.1 mph - N/A   Overcast
2:53 PM 39.9 °F 32.5 °F 24.1 °F 53% 29.96 in 10.0 mi West 12.7 mph - N/A   Overcast
3:53 PM 37.9 °F 30.9 °F 27.0 °F 65% 29.97 in 10.0 mi WNW 10.4 mph - N/A   Overcast
4:53 PM 37.0 °F 33.3 °F 28.0 °F 70% 29.98 in 10.0 mi WNW 4.6 mph - N/A   Overcast
5:27 PM 35.6 °F 31.7 °F 28.4 °F 75% 29.94 in 10.0 mi WNW 4.6 mph - N/A   Overcast
5:53 PM 36.0 °F 32.1 °F 28.0 °F 73% 29.98 in 10.0 mi WNW 4.6 mph - N/A   Overcast
6:53 PM 34.0 °F 29.8 °F 27.0 °F 75% 29.99 in 10.0 mi WNW 4.6 mph - N/A   Overcast
7:53 PM 35.1 °F 28.6 °F 27.0 °F 72% 29.99 in 10.0 mi WNW 8.1 mph - N/A   Mostly Cloudy
8:19 PM 33.8 °F 27.7 °F 26.6 °F 75% 29.96 in 10.0 mi WNW 6.9 mph - N/A   Overcast
8:53 PM 34.0 °F - 27.0 °F 75% 30.01 in 10.0 mi Calm Calm - N/A   Overcast
9:53 PM 33.1 °F 28.7 °F 27.0 °F 78% 30.01 in 10.0 mi WNW 4.6 mph - N/A   Overcast
10:04 PM 33.8 °F 29.6 °F 26.6 °F 75% 29.97 in 10.0 mi West 4.6 mph - N/A   Overcast
10:53 PM 32.0 °F - 27.0 °F 82% 29.99 in 10.0 mi Calm Calm - N/A   Mostly Cloudy
11:16 PM 32.0 °F - 26.6 °F 80% 29.96 in 10.0 mi Calm Calm - N/A   Overcast
11:53 PM 30.9 °F - 27.0 °F 85% 29.99 in 8.0 mi Calm Calm - N/A   Overcast